Weather History for KCDD - March, 2014

Change the Weather History Date:

Thursday, March 27, 2014

  Actual Average Record
Temperature  
Mean Temperature 21 °F -  
Max Temperature 30 °F 37 °F 57 °F (2012)
Min Temperature 10 °F 19 °F -5 °F (2008)
Degree Days  
Heating Degree Days 44    
Moisture  
Dew Point 17 °F    
Average Humidity 78    
Maximum Humidity 93    
Minimum Humidity 68    
Precipitation  
Precipitation 0.00 in - - ()
Sea Level Pressure  
Sea Level Pressure 29.70 in    
Wind  
Wind Speed 2 mph (North)    
Max Wind Speed 8 mph    
Max Gust Speed -    
Visibility 9 miles    
Events Snow    
Averages and records for this station are not official NWS values.
T = Trace of Precipitation, MM = Missing Value Source: NWS Daily Summary

Daily Weather History Graph

Daily Weather History Graph

Search for Another Location

Airport or City:

Trip Planner

Search our weather history database for the weather conditions in past years. The results will help you decide how hot, cold, wet, or windy it might be!

Date:

Astronomy

Mar. 27, 2014 Rise Set
Actual Time 6:58 AM CDT 7:33 PM CDT
Civil Twilight 6:26 AM CDT 8:04 PM CDT
Nautical Twilight 5:49 AM CDT 8:41 PM CDT
Astronomical Twilight 5:10 AM CDT 9:20 PM CDT
Moon 5:05 AM CDT (3/27) 4:07 PM CDT (3/27)
Length of Visible Light 13h 37m
Length of Day
12h 34m
Waning Crescent, 13% of the Moon is Illuminated
Mar 27
Waning Crescent
Mar 30
New
Apr 7
First Quarter
Apr 15
Full
Apr 22
Last Quarter

Hourly Weather History & Observations

Time (CDT) Temp. Windchill Dew Point Humidity Pressure Visibility Wind Dir Wind Speed Gust Speed Precip Events Conditions
12:08 AM 19.4 °F - 14.0 °F 80% 29.72 in 10.0 mi Calm Calm - N/A   Overcast
12:28 AM 19.4 °F - 14.0 °F 80% 29.71 in 10.0 mi Calm Calm - N/A   Overcast
12:48 AM 19.4 °F - 14.0 °F 80% 29.70 in 7.0 mi Calm Calm - N/A   Overcast
1:08 AM 19.4 °F - 14.0 °F 80% 29.70 in 2.0 mi Calm Calm - N/A Snow Light Snow
1:28 AM 19.4 °F - 14.0 °F 80% 29.69 in 2.5 mi Calm Calm - N/A Snow Light Snow
1:48 AM 19.4 °F - 15.8 °F 86% 29.69 in 4.0 mi Calm Calm - N/A Snow Light Snow
2:08 AM 19.4 °F - 15.8 °F 86% 29.68 in 5.0 mi Calm Calm - N/A Snow Light Snow
2:28 AM 19.4 °F - 15.8 °F 86% 29.67 in 2.5 mi Calm Calm - N/A Snow Light Snow
2:48 AM 19.4 °F - 15.8 °F 86% 29.67 in 3.0 mi Calm Calm - N/A Snow Light Snow
3:08 AM 19.4 °F - 15.8 °F 86% 29.66 in 3.0 mi Calm Calm - N/A Snow Light Snow
3:28 AM 19.4 °F - 15.8 °F 86% 29.66 in 7.0 mi Calm Calm - N/A Snow Light Snow
3:48 AM 19.4 °F - 15.8 °F 86% 29.65 in 2.0 mi Calm Calm - N/A Snow Light Snow
4:08 AM 19.4 °F 14.3 °F 15.8 °F 86% 29.65 in 2.0 mi NNE 3.5 mph - N/A Snow Light Snow
4:28 AM 19.4 °F - 15.8 °F 86% 29.65 in 2.0 mi Calm Calm - N/A Snow Light Snow
4:48 AM 19.4 °F - 15.8 °F 86% 29.64 in 4.0 mi Calm Calm - N/A Snow Light Snow
5:08 AM 19.4 °F - 15.8 °F 86% 29.65 in 10.0 mi Calm Calm - N/A   Overcast
5:28 AM 19.4 °F - 15.8 °F 86% 29.65 in 10.0 mi Calm Calm - N/A   Overcast
5:48 AM 19.4 °F - 15.8 °F 86% 29.65 in 10.0 mi Calm Calm - N/A   Overcast
6:08 AM 19.4 °F - 15.8 °F 86% 29.65 in 10.0 mi Calm Calm - N/A   Overcast
6:28 AM 19.4 °F - 15.8 °F 86% 29.65 in 10.0 mi Calm Calm - N/A   Overcast
6:48 AM 19.4 °F - 15.8 °F 86% 29.66 in 10.0 mi Calm Calm - N/A   Overcast
7:08 AM 19.4 °F - 15.8 °F 86% 29.66 in 10.0 mi Calm Calm - N/A   Overcast
7:28 AM 19.4 °F - 15.8 °F 86% 29.66 in 10.0 mi Calm Calm - N/A   Overcast
7:48 AM 19.4 °F - 15.8 °F 86% 29.67 in 10.0 mi Calm Calm - N/A   Overcast
8:08 AM 19.4 °F - 17.6 °F 93% 29.67 in 10.0 mi Calm Calm - N/A   Overcast
8:28 AM 21.2 °F - 17.6 °F 86% 29.67 in 10.0 mi Calm Calm - N/A   Overcast
8:48 AM 21.2 °F - 17.6 °F 86% 29.67 in 10.0 mi Calm Calm - N/A   Overcast
9:08 AM 21.2 °F 16.4 °F 17.6 °F 86% 29.67 in 10.0 mi North 3.5 mph - N/A   Overcast
9:28 AM 21.2 °F 13.6 °F 17.6 °F 86% 29.68 in 10.0 mi North 5.8 mph - N/A   Overcast
9:48 AM 23.0 °F 18.4 °F 19.4 °F 86% 29.68 in 10.0 mi NNE 3.5 mph - N/A   Overcast
10:08 AM 23.0 °F - 19.4 °F 86% 29.69 in 10.0 mi Calm Calm - N/A   Overcast
10:28 AM 24.8 °F 19.1 °F 19.4 °F 80% 29.69 in 10.0 mi North 4.6 mph - N/A   Overcast
10:48 AM 24.8 °F 19.1 °F 19.4 °F 80% 29.68 in 10.0 mi North 4.6 mph - N/A   Overcast
11:08 AM 24.8 °F 19.1 °F 19.4 °F 80% 29.68 in 10.0 mi North 4.6 mph - N/A   Overcast
11:28 AM 24.8 °F 19.1 °F 21.2 °F 86% 29.69 in 10.0 mi North 4.6 mph - N/A   Overcast
11:48 AM 26.6 °F 21.2 °F 21.2 °F 80% 29.69 in 10.0 mi North 4.6 mph - N/A   Overcast
12:09 PM 26.6 °F 20.0 °F 21.2 °F 80% 29.69 in 10.0 mi North 5.8 mph - N/A   Overcast
12:28 PM 28.4 °F 23.3 °F 23.0 °F 80% 29.69 in 10.0 mi NNE 4.6 mph - N/A   Overcast
12:48 PM 28.4 °F 24.6 °F 21.2 °F 74% 29.69 in 10.0 mi North 3.5 mph - N/A   Overcast
1:08 PM 28.4 °F 22.2 °F 21.2 °F 74% 29.69 in 10.0 mi North 5.8 mph - N/A   Overcast
1:28 PM 30.2 °F 24.3 °F 21.2 °F 69% 29.69 in 10.0 mi NNE 5.8 mph - N/A   Overcast
1:48 PM 28.4 °F 21.2 °F 21.2 °F 74% 29.69 in 10.0 mi North 6.9 mph - N/A   Overcast
2:08 PM 30.2 °F 25.4 °F 21.2 °F 69% 29.69 in 10.0 mi North 4.6 mph - N/A   Overcast
2:28 PM 30.2 °F 25.4 °F 21.2 °F 69% 29.69 in 10.0 mi North 4.6 mph - N/A   Overcast
2:48 PM 30.2 °F 25.4 °F 21.2 °F 69% 29.69 in 10.0 mi NNE 4.6 mph - N/A   Overcast
3:08 PM 30.2 °F 25.4 °F 21.2 °F 69% 29.69 in 10.0 mi North 4.6 mph - N/A   Overcast
3:28 PM 30.2 °F 22.6 °F 21.2 °F 69% 29.69 in 10.0 mi North 8.1 mph - N/A   Overcast
3:48 PM 30.2 °F 24.3 °F 21.2 °F 69% 29.69 in 10.0 mi North 5.8 mph - N/A   Overcast
4:08 PM 30.2 °F 25.4 °F 21.2 °F 69% 29.69 in 10.0 mi North 4.6 mph - N/A   Overcast
4:28 PM 28.4 °F 21.2 °F 21.2 °F 74% 29.69 in 10.0 mi North 6.9 mph - N/A   Overcast
4:48 PM 28.4 °F 22.2 °F 21.2 °F 74% 29.70 in 10.0 mi North 5.8 mph - N/A   Overcast
5:08 PM 28.4 °F 22.2 °F 21.2 °F 74% 29.70 in 10.0 mi North 5.8 mph - N/A   Overcast
5:28 PM 28.4 °F 22.2 °F 21.2 °F 74% 29.71 in 10.0 mi North 5.8 mph - N/A   Overcast
5:48 PM 28.4 °F 23.3 °F 21.2 °F 74% 29.72 in 10.0 mi North 4.6 mph - N/A   Overcast
6:08 PM 28.4 °F 24.6 °F 21.2 °F 74% 29.72 in 10.0 mi North 3.5 mph - N/A   Overcast
6:28 PM 28.4 °F 22.2 °F 19.4 °F 69% 29.72 in 10.0 mi North 5.8 mph - N/A   Overcast
6:48 PM 28.4 °F 24.6 °F 19.4 °F 69% 29.73 in 10.0 mi North 3.5 mph - N/A   Overcast
7:08 PM 28.4 °F 24.6 °F 19.4 °F 69% 29.74 in 10.0 mi North 3.5 mph - N/A   Overcast
7:28 PM 28.4 °F 22.2 °F 19.4 °F 69% 29.74 in 10.0 mi NNW 5.8 mph - N/A   Overcast
7:48 PM 26.6 °F 21.2 °F 19.4 °F 74% 29.75 in 10.0 mi North 4.6 mph - N/A   Overcast
8:08 PM 26.6 °F 22.6 °F 19.4 °F 74% 29.75 in 10.0 mi North 3.5 mph - N/A   Overcast
8:28 PM 26.6 °F 22.6 °F 17.6 °F 69% 29.76 in 10.0 mi NNW 3.5 mph - N/A   Overcast
8:48 PM 26.6 °F - 17.6 °F 69% 29.77 in 10.0 mi Calm Calm - N/A   Overcast
9:08 PM 26.6 °F - 17.6 °F 69% 29.77 in 10.0 mi Calm Calm - N/A   Overcast
9:28 PM 26.6 °F - 17.6 °F 69% 29.77 in 10.0 mi Calm Calm - N/A   Overcast
9:49 PM 26.6 °F - 17.6 °F 69% 29.78 in 10.0 mi Calm Calm - N/A   Overcast
10:08 PM 21.2 °F - 14.0 °F 74% 29.78 in 10.0 mi Calm Calm - N/A   Mostly Cloudy
10:28 PM 19.4 °F - 10.4 °F 68% 29.79 in 10.0 mi Calm Calm - N/A   Clear
10:48 PM 15.8 °F - 8.6 °F 73% 29.80 in 10.0 mi Calm Calm - N/A   Clear
11:08 PM 12.2 °F - 6.8 °F 79% 29.80 in 10.0 mi Calm Calm - N/A   Clear
11:28 PM 12.2 °F - 5.0 °F 73% 29.81 in 10.0 mi Calm Calm - N/A   Clear
11:48 PM 10.4 °F - 3.2 °F 73% 29.81 in 10.0 mi Calm Calm - N/A   Clear